Regional Weather Roundup
Issued by NWS

Home | Current Version | Previous Version | Graphics & Text | Print | Product List | Glossary On
Versions: 1 2 3 4 5 6 7 8 9 10 11 12 13 14 15 16 17 18 19 20 21 22 23 24 25 26 27 28 29 30 31 32 33 34 35 36 37 38 39 40 41 42 43 44 45 46 47 48 49 50
000
ASUS43 KOAX 260802
RWRNE

WEATHER ROUNDUP FOR NEBRASKA
NATIONAL WEATHER SERVICE OMAHA NE
200 AM CST WED NOV 26 2014

NOTES: SATELLITE DATA IS BEING USED TO AUGMENT CLOUD COVER ABOVE
       12000 FEET.
       "FAIR" INDICATES FEW OR NO CLOUDS BELOW 12,000 FEET WITH NO
       SIGNIFICANT WEATHER AND/OR OBSTRUCTIONS TO VISIBILITY.

  * THESE STATIONS DO NOT REPORT WEATHER SUCH AS RAIN...SNOW OR FOG.

NEZ001>004-019>022-054>056-260900-
NEBRASKA PANHANDLE

CITY           SKY/WX    TMP DP  RH WIND       PRES   REMARKS
SCOTTSBLUFF    CLOUDY    31  25  78 NW14G23   30.09S WCI  21
ALLIANCE       CLOUDY    32  22  66 NW23G36   30.04R WCI  19
CHADRON        CLOUDY    44  23  43 NW18      30.10R
SIDNEY         CLOUDY    29  24  82 NW17G25   30.07R WCI  17
$$

NEZ057>060-069>072-079>082-260900-
SOUTHWEST NEBRASKA

CITY           SKY/WX    TMP DP  RH WIND       PRES   REMARKS
NORTH PLATTE   CLOUDY    35  27  72 NW17      30.01R WCI  25
IMPERIAL       CLOUDY    36  26  67 NW16      30.04R WCI  26
LEXINGTON      CLOUDY    37  31  79 W20G28    29.98R WCI  26
MCCOOK         CLOUDY    39  30  70 W18G24    30.02R WCI  30
$$

NEZ005>010-023>029-035>040-094-260900-
NORTH CENTRAL NEBRASKA

CITY           SKY/WX    TMP DP  RH WIND       PRES   REMARKS
VALENTINE      CLOUDY    33  23  66 NW26G43   29.97R WCI  20
BROKEN BOW     CLOUDY    38  23  55 NW23G36   29.94R WCI  27
O`NEILL        CLOUDY    37  31  78 NW18G31   29.89R WCI  27
ORD            MOCLDY    36  26  67 NW15      29.91R WCI  27
$$

NEZ041-046>049-061>064-073>077-083>087-260900-
SOUTH CENTRAL NEBRASKA

CITY           SKY/WX    TMP DP  RH WIND       PRES   REMARKS
GRAND ISLAND   PTCLDY    34  27  75 NW15      29.92R WCI  24
AURORA         CLEAR     34  28  80 NW14      29.91R WCI  25
HASTINGS       MOCLDY    36  27  69 NW15      29.92R WCI  27
KEARNEY *      CLOUDY    37  25  60 W14       29.96S WCI  29
YORK           CLEAR     36  32  87 NW20      29.88S WCI  25
$$

NEZ011>018-030>034-042>045-260900-
NORTHEAST NEBRASKA

CITY           SKY/WX    TMP DP  RH WIND       PRES   REMARKS
NORFOLK        CLOUDY    38  32  79 NW15      29.83R WCI  29
BLAIR          CLOUDY    37  35  89 SW5       29.81S WCI  34
COLUMBUS *     MOCLDY    36  28  75 W12       29.87R WCI  27
FREMONT        MOCLDY    37  35  92 W14       29.84R WCI  28
TEKAMAH        CLOUDY    35  31  85 CALM      29.82R
WAYNE          DRIZZLE   37  34  91 NW12      29.83R WCI  29
$$

NEZ050>053-065>068-078-088>093-260900-
SOUTHEAST NEBRASKA

CITY           SKY/WX    TMP DP  RH WIND       PRES   REMARKS
LINCOLN        PTCLDY    38  32  79 W6        29.88R WCI  33
OMAHA EPPLEY   DRIZZLE   35  34  96 S6        29.83F WCI  30
FALLS CITY     LGT RAIN  40  31  70 S10       29.89F WCI  33
NEBRASKA CITY  DRIZZLE   38  33  81 SW10      29.85S WCI  31
PLATTSMOUTH    CLOUDY    38  35  89 SW7       29.83S WCI  32
$$

NEZ044-045-051>053-067-260900-
OMAHA AREA

CITY           SKY/WX    TMP DP  RH WIND       PRES   REMARKS
OMAHA EPPLEY   DRIZZLE   35  34  96 S6        29.83F WCI  30
BLAIR          CLOUDY    37  35  89 SW5       29.81S WCI  34
FREMONT        MOCLDY    37  35  92 W14       29.84R WCI  28
MILLARD        CLOUDY    38  35  88 NW6       29.83R WCI  34
OFFUTT AFB     CLOUDY    34  33  95 E3        29.82F
PLATTSMOUTH    CLOUDY    38  35  89 SW7       29.83S WCI  32
WAHOO          FAIR      37  32  83 NW14      29.83R WCI  28
$$


USA.gov is the U.S. government's official web portal to all federal, state and local government web resources and services.